Date,TemperatureHighF,TemperatureAvgF,TemperatureLowF,DewpointHighF,DewpointAvgF,DewpointLowF,HumidityHigh,HumidityAvg,HumidityLow,PressureMaxIn,PressureMinIn,WindSpeedMaxMPH,WindSpeedAvgMPH,GustSpeedMaxMPH,PrecipitationSumIn
2013-2-14,36.0,29.5,22.0,33.0,26.5,19.0,88,88,87,0.00,40.00,59,36,71,0.00
2013-2-15,48.0,37.4,27.0,44.0,34.0,23.0,89,87,80,0.00,40.00,44,19,54,0.00
2013-2-16,40.0,34.6,28.0,36.0,31.5,25.0,89,88,85,0.00,40.00,24,13,30,0.00
2013-2-17,35.0,30.2,25.0,32.0,27.2,22.0,89,87,87,0.00,40.00,27,14,32,0.00
2013-2-18,30.0,25.4,22.0,27.0,22.3,19.0,88,87,83,0.00,40.00,36,30,63,0.00
2013-2-19,24.0,15.0,11.0,20.0,11.5,7.0,86,85,84,0.00,40.00,42,16,59,0.00
2013-2-20,25.0,19.0,12.0,22.0,15.6,9.0,87,85,83,0.00,40.00,46,15,55,0.00
2013-3-17,39.0,32.2,26.0,35.0,29.1,23.0,88,87,86,0.00,40.00,27,17,32,0.00
2013-3-18,38.0,32.5,30.0,34.0,29.4,27.0,88,87,84,0.00,40.00,28,21,35,0.00
2013-3-19,35.0,30.0,25.0,32.0,26.9,22.0,88,87,85,0.00,40.00,38,29,53,0.00
2013-3-20,32.0,29.0,25.0,28.0,25.9,22.0,87,87,85,0.00,40.00,46,23,55,0.00
2013-3-21,36.0,29.1,24.0,31.0,25.6,21.0,87,86,81,0.00,40.00,19,10,27,0.00
2013-3-22,35.0,27.3,19.0,31.0,24.2,16.0,88,87,84,0.00,40.00,59,16,74,0.00
2013-3-23,38.0,31.6,18.0,35.0,28.6,15.0,89,88,86,0.00,40.00,37,17,51,0.00
2013-5-17,38.0,30.6,28.0,37.0,17.3,-99.9,96,95,95,29.80,29.71,32,23,43,0.00
2013-5-20,62.0,54.7,43.0,58.0,53.0,42.0,95,94,88,0.00,40.00,21,14,28,0.00
2013-5-21,46.0,41.8,32.0,45.0,40.8,31.0,95,95,95,0.00,40.00,52,30,69,0.00
2013-5-22,39.0,33.5,24.0,38.0,32.2,22.0,96,94,89,0.00,40.00,32,18,46,0.00
2013-5-23,40.0,33.4,23.0,38.0,32.2,22.0,96,94,93,0.00,40.00,23,12,35,0.00
2013-5-24,46.0,39.7,31.0,45.0,38.5,30.0,96,95,89,0.00,40.00,26,18,45,0.00
2013-5-25,47.0,40.6,32.0,45.0,39.3,31.0,95,94,91,0.00,40.00,34,18,50,0.00
2013-5-26,43.0,38.8,31.0,42.0,37.8,30.0,95,95,93,0.00,40.00,36,22,42,0.00
2013-5-27,40.0,34.4,32.0,39.0,33.4,31.0,96,95,94,0.00,40.00,38,27,51,0.00